Stations météo

réclame
Mon MeteoGroup
Dieppe, France (7040): Température de l'air & dewpoint: 29.07.2020 18:00:00 - 04.08.2020 18:00:00 (CEST)Dieppe, France (7040): Température de l'air 5cm: 29.07.2020 18:00:00 - 04.08.2020 18:00:00 (CEST)Dieppe, France (7040): Vitesse du vent & gusts: 29.07.2020 18:00:00 - 04.08.2020 18:00:00 (CEST)Dieppe, France (7040): Direction du vent: 29.07.2020 18:00:00 - 04.08.2020 18:00:00 (CEST)Dieppe, France (7040): reduced air pressure: 29.07.2020 18:00:00 - 04.08.2020 18:00:00 (CEST)Dieppe, France (7040): visibility: 29.07.2020 18:00:00 - 04.08.2020 18:00:00 (CEST)Dieppe, France (7040): Quantités de précipitations: 29.07.2020 18:00:00 - 04.08.2020 18:00:00 (CEST)
Date & Time tt [°C] td [°C] tt 5cm [°C] ff [km/h] ff [knt] fx [km/h] fx [knt] dd ppp [hPa] vv [km] rr [mm]
04.08.2020 18:00:00 21,2 12,1 21,9 8 5 17 9 NW 1017,8 - 0,0
04.08.2020 17:00:00 20,6 12,3 22,4 11 6 22 12 NW 1018,1 - 0,0
04.08.2020 16:00:00 20,3 11,5 23,5 13 7 26 14 NW 1018,4 - 0,0
04.08.2020 15:00:00 19,0 12,0 21,7 15 8 28 15 NW 1018,9 - 0,0
04.08.2020 14:00:00 19,1 10,6 21,0 16 8 28 15 WNW 1018,8 25 0,0
04.08.2020 13:00:00 19,2 12,0 21,2 17 9 31 17 WNW 1018,7 - 0,0
04.08.2020 12:00:00 19,3 13,0 20,7 23 13 30 16 W 1018,6 - 0,0
04.08.2020 11:00:00 19,2 13,1 22,2 16 8 24 13 W 1018,5 16 0,0
04.08.2020 10:00:00 17,4 12,3 19,1 11 6 22 12 S 1018,6 - 0,0
04.08.2020 09:00:00 14,3 11,3 13,9 11 6 20 11 SSE 1018,4 - 0,0
04.08.2020 08:00:00 12,0 9,9 11,8 10 6 18 10 SSE 1017,9 - 0,0
04.08.2020 07:00:00 11,7 10,3 11,0 14 8 22 12 S 1017,3 - 0,0
04.08.2020 06:00:00 11,8 10,2 11,2 14 8 21 11 S 1017,0 - 0,0
04.08.2020 05:00:00 12,6 10,7 12,0 11 6 23 12 S 1017,0 10 0,0
04.08.2020 04:00:00 12,8 10,7 12,2 14 8 23 12 S 1017,1 - 0,0
04.08.2020 03:00:00 13,4 10,9 12,9 14 7 20 11 SSE 1017,5 - 0,0
04.08.2020 02:00:00 14,2 11,4 13,3 10 5 16 9 S 1017,6 - 0,0
04.08.2020 01:00:00 15,2 11,4 14,6 10 5 24 13 S 1017,8 - 0,0
04.08.2020 00:00:00 16,9 12,2 16,1 15 8 29 16 W 1017,7 - 0,0
03.08.2020 23:00:00 17,2 12,7 16,7 22 12 34 18 W 1017,5 - 0,0
03.08.2020 22:00:00 17,2 12,3 16,8 20 11 32 17 W 1017,1 - 0,0
03.08.2020 21:00:00 17,5 12,8 17,4 18 10 31 17 WNW 1016,6 - 0,0
03.08.2020 20:00:00 18,3 12,9 18,2 18 10 31 17 WNW 1016,2 10 0,0
03.08.2020 19:00:00 18,7 13,3 19,1 18 10 29 16 WNW 1016,2 - 0,0
03.08.2020 18:00:00 19,1 12,4 20,1 15 8 27 15 WNW 1016,2 - 0,0
03.08.2020 17:00:00 19,1 12,1 20,6 19 10 29 16 NW 1016,2 - 0,0
03.08.2020 16:00:00 19,5 12,5 19,3 18 10 29 16 NW 1016,1 - 0,0
03.08.2020 15:00:00 17,6 12,5 19,1 14 8 27 15 WNW 1016,2 - 0,0
03.08.2020 14:00:00 17,8 12,5 18,1 17 9 32 17 NW 1016,2 10 0,0
03.08.2020 13:00:00 17,2 13,3 18,0 18 10 35 19 W 1016,0 - 0,0
03.08.2020 12:00:00 17,6 13,5 18,8 26 14 39 21 W 1015,8 - 0,0
03.08.2020 11:00:00 17,1 13,2 17,4 27 15 39 21 W 1015,7 - 0,0
03.08.2020 10:00:00 17,0 13,7 16,9 25 14 38 21 W 1015,4 - 0,0
03.08.2020 09:00:00 16,8 13,3 16,6 23 13 37 20 WNW 1015,2 - 0,0
03.08.2020 08:00:00 16,6 13,3 14,7 18 10 32 18 WNW 1015,0 - 0,0
03.08.2020 07:00:00 14,8 12,8 14,5 10 5 23 13 S 1014,9 - 0,0
03.08.2020 06:00:00 14,8 12,8 14,5 10 6 18 10 SSE 1015,0 - 0,0
03.08.2020 05:00:00 14,9 12,9 14,4 9 5 18 10 S 1015,6 - 0,0
03.08.2020 04:00:00 14,5 12,4 14,2 9 5 16 8 S 1016,0 - 0,0
03.08.2020 03:00:00 14,5 12,2 14,0 9 5 16 9 S 1016,4 - 0,0
03.08.2020 02:00:00 14,6 12,1 14,3 9 5 15 8 SSE 1016,8 10 0,0
03.08.2020 01:00:00 15,3 12,2 14,7 8 5 23 13 S 1017,1 - 0,0
03.08.2020 00:00:00 16,9 13,4 16,4 17 9 29 16 W 1017,3 - 0,0
02.08.2020 23:00:00 17,0 13,1 16,5 16 8 29 16 W 1017,6 10 0,0
02.08.2020 22:00:00 17,3 12,8 16,9 19 10 36 19 W 1017,7 - 0,0
02.08.2020 21:00:00 17,8 12,5 17,6 21 11 35 19 W 1017,5 - 0,0
02.08.2020 20:00:00 17,9 12,1 18,0 21 11 34 18 W 1017,6 - 0,0
02.08.2020 19:00:00 19,2 11,7 20,0 21 11 32 17 W 1017,6 - 0,0
02.08.2020 18:00:00 19,3 12,3 20,5 19 10 34 18 W 1018,1 - 0,0
02.08.2020 17:00:00 19,2 12,7 20,7 24 13 35 19 W 1018,5 - 0,0
02.08.2020 16:00:00 18,9 11,7 22,3 23 13 34 19 WNW 1018,8 - 0,0
02.08.2020 15:00:00 19,3 12,1 22,7 20 11 32 17 W 1019,1 - 0,0
02.08.2020 14:00:00 19,1 12,1 21,1 22 12 34 18 W 1019,2 - 0,0
02.08.2020 13:00:00 18,8 11,8 21,5 16 9 33 18 W 1019,3 - 0,0
02.08.2020 12:00:00 18,1 10,5 19,8 22 12 32 17 W 1019,2 - 0,0
02.08.2020 11:00:00 17,7 11,7 18,0 18 10 28 15 WNW 1019,1 10 0,0
02.08.2020 10:00:00 17,2 11,7 17,3 14 8 31 17 WNW 1018,9 - 0,0
02.08.2020 09:00:00 16,7 10,8 16,9 15 8 31 17 WNW 1018,8 - 0,0
02.08.2020 08:00:00 16,9 11,4 16,6 16 8 38 21 NW 1018,7 10 0,0
02.08.2020 07:00:00 16,8 11,3 16,6 27 14 40 22 NW 1018,5 - 0,0
02.08.2020 06:00:00 16,9 10,5 16,8 23 12 41 22 NW 1018,1 - 0,0
02.08.2020 05:00:00 17,2 11,9 17,0 23 13 39 21 NW 1017,9 10 0,0
02.08.2020 04:00:00 17,6 12,3 17,3 22 12 37 20 NW 1017,7 - 0,0
02.08.2020 03:00:00 17,7 14,4 17,2 21 11 43 23 W 1017,6 - 0,0
02.08.2020 02:00:00 17,5 13,8 17,0 19 11 43 23 W 1017,7 - 0,0
02.08.2020 01:00:00 17,4 14,7 16,9 21 11 42 23 WSW 1018,1 - 0,0
02.08.2020 00:00:00 17,4 14,1 17,0 18 10 44 24 W 1018,3 - 0,0
01.08.2020 23:00:00 17,5 14,4 17,1 19 10 39 21 W 1017,8 10 0,0
01.08.2020 22:00:00 18,3 15,5 17,8 15 8 30 16 W 1017,9 - 0,0
01.08.2020 21:00:00 18,8 15,3 18,5 12 6 23 13 W 1017,6 - 0,0
01.08.2020 20:00:00 19,9 15,5 19,8 14 8 24 13 WNW 1017,9 - 0,0
01.08.2020 19:00:00 20,8 15,6 21,6 11 6 19 10 WNW 1018,0 - 0,0
01.08.2020 18:00:00 21,0 15,5 21,5 14 8 25 14 W 1018,3 - 0,0
01.08.2020 17:00:00 20,6 14,9 22,2 14 8 27 15 WNW 1018,1 - 0,0
01.08.2020 16:00:00 20,4 15,0 23,3 17 9 28 15 WNW 1018,2 - 0,0
01.08.2020 15:00:00 19,8 14,6 22,5 14 8 29 16 WNW 1018,3 - 0,0
01.08.2020 14:00:00 19,9 14,7 22,1 13 7 29 16 WNW 1018,6 - 0,0
01.08.2020 13:00:00 19,6 14,6 21,3 18 10 34 18 W 1018,7 - 0,0
01.08.2020 12:00:00 18,3 14,8 20,3 23 13 34 18 W 1018,2 - 0,0
01.08.2020 11:00:00 18,4 15,1 20,0 21 11 33 18 W 1017,7 - 0,0
01.08.2020 10:00:00 18,2 15,8 18,7 24 13 38 21 W 1017,2 - 0,0
01.08.2020 09:00:00 18,4 16,2 18,6 23 12 38 20 W 1016,9 - 0,0
01.08.2020 08:00:00 18,2 16,0 17,7 21 11 33 18 W 1016,7 10 0,0
01.08.2020 07:00:00 18,1 15,9 17,5 19 10 36 19 W 1016,6 - 0,0
01.08.2020 06:00:00 17,9 16,1 17,2 11 6 23 12 WSW 1016,2 - 0,0
01.08.2020 05:00:00 17,9 16,4 17,7 11 6 26 14 WSW 1016,0 - 0,0
01.08.2020 04:00:00 18,3 17,5 17,7 16 9 33 18 W 1015,9 - 0,0
01.08.2020 03:00:00 17,8 17,2 17,5 9 5 20 11 SSW 1015,7 - 0,0
01.08.2020 02:00:00 17,6 16,8 17,3 11 6 28 15 W 1015,6 10 0,0
01.08.2020 01:00:00 17,8 17,0 17,5 16 9 33 18 W 1015,6 - 0,0
01.08.2020 00:00:00 18,1 17,1 17,9 15 8 27 15 W 1015,4 - 0,0
31.07.2020 23:00:00 18,9 16,9 18,6 19 10 31 17 W 1014,9 - 0,0
31.07.2020 22:00:00 19,1 16,1 18,8 10 5 24 13 W 1014,5 - 0,0
31.07.2020 21:00:00 19,5 16,5 19,7 14 8 30 16 W 1014,0 - 0,0
31.07.2020 20:00:00 20,3 16,5 20,8 18 10 29 16 W 1013,3 18 0,0
31.07.2020 19:00:00 21,2 16,6 20,7 11 6 34 19 WNW 1012,9 - 0,0
31.07.2020 18:00:00 23,7 14,1 24,2 20 11 55 30 WSW 1012,9 - 0,0
31.07.2020 17:00:00 27,3 16,0 27,6 24 13 63 34 WSW 1012,3 - 0,0
31.07.2020 16:00:00 37,5 12,2 38,9 24 13 47 26 SSW 1009,9 - 0,0
31.07.2020 15:00:00 37,8 13,8 39,4 18 10 41 22 S 1009,9 - 0,0
31.07.2020 14:00:00 38,1 14,6 38,3 16 8 33 18 SSE 1010,2 18 0,0
31.07.2020 13:00:00 36,3 14,3 37,1 13 7 36 19 SSE 1010,7 - 0,0
31.07.2020 12:00:00 34,0 14,0 35,5 11 6 30 16 SE 1011,1 - 0,0
31.07.2020 11:00:00 29,9 12,3 30,0 11 6 29 16 SSE 1011,4 - 0,0
31.07.2020 10:00:00 25,7 11,8 25,5 11 6 25 14 S 1011,9 - 0,0
31.07.2020 09:00:00 22,1 10,6 21,7 16 8 25 14 S 1012,4 - 0,0
31.07.2020 08:00:00 19,3 9,8 17,6 14 8 27 15 SSE 1012,4 - 0,0
31.07.2020 07:00:00 17,0 9,7 16,2 14 8 26 14 S 1012,9 - 0,0
31.07.2020 06:00:00 16,8 9,5 16,3 14 7 25 13 SSE 1012,9 - 0,0
31.07.2020 05:00:00 16,9 9,6 16,4 12 7 29 15 SSE 1013,3 - 0,0
31.07.2020 04:00:00 17,4 9,3 16,8 13 7 32 17 SE 1014,1 - 0,0
31.07.2020 03:00:00 19,3 9,2 17,1 16 9 36 19 SE 1014,8 - 0,0
31.07.2020 02:00:00 18,2 9,5 16,9 9 5 19 10 SE 1015,2 - 0,0
31.07.2020 01:00:00 18,9 11,0 17,9 8 5 18 10 SE 1015,3 - 0,0
31.07.2020 00:00:00 22,1 9,6 19,2 9 5 16 9 SE 1015,4 - 0,0
30.07.2020 23:00:00 20,6 13,3 15,7 6 3 13 7 ESE 1015,3 - 0,0
30.07.2020 22:00:00 19,9 16,1 16,6 0 0 18 10 N 1015,3 - 0,0
30.07.2020 21:00:00 20,5 16,3 20,0 13 7 19 10 NE 1015,3 - 0,0
30.07.2020 20:00:00 21,1 16,7 21,3 9 5 20 11 NNE 1015,7 - 0,0
30.07.2020 19:00:00 21,8 17,2 23,4 14 7 24 13 NE 1016,0 - 0,0
30.07.2020 18:00:00 22,3 16,8 24,1 16 9 25 14 NE 1016,9 - 0,0
30.07.2020 17:00:00 22,0 15,4 24,7 18 10 30 16 NE 1017,4 - 0,0
30.07.2020 16:00:00 22,3 16,6 27,3 20 11 29 15 NE 1017,8 - 0,0
30.07.2020 15:00:00 22,1 16,4 26,4 16 8 26 14 NE 1018,3 - 0,0
30.07.2020 14:00:00 21,5 16,5 24,9 16 9 27 15 NE 1018,8 - 0,0
30.07.2020 13:00:00 20,9 15,7 24,6 18 10 24 13 NE 1019,3 - 0,0
30.07.2020 12:00:00 20,4 14,5 26,9 10 6 14 8 NE 1019,6 - 0,0
30.07.2020 11:00:00 19,1 13,1 24,4 7 4 12 7 NE 1019,9 12 0,0
30.07.2020 10:00:00 18,2 12,0 19,9 5 3 10 6 NNE 1020,1 - 0,0
30.07.2020 09:00:00 14,9 10,3 13,8 5 3 14 7 S 1019,9 - 0,0
30.07.2020 08:00:00 11,5 9,4 11,3 11 6 17 9 S 1020,2 - 0,0
30.07.2020 07:00:00 10,6 9,2 10,3 5 3 19 11 SSE 1020,4 - 0,0
30.07.2020 06:00:00 10,7 9,1 10,4 10 5 16 8 SSE 1020,0 - 0,0
30.07.2020 05:00:00 11,0 9,3 10,7 10 5 16 9 SSE 1020,2 - 0,0
30.07.2020 04:00:00 11,5 9,6 11,2 9 5 15 8 S 1020,3 - 0,0
30.07.2020 03:00:00 12,0 9,9 11,7 9 5 16 8 SSE 1020,7 - 0,0
30.07.2020 02:00:00 12,7 10,2 12,3 9 5 16 9 SSE 1020,8 - 0,0
30.07.2020 01:00:00 13,6 10,4 12,9 7 4 11 6 S 1020,8 - 0,0
30.07.2020 00:00:00 14,9 10,3 13,9 5 3 8 5 S 1021,1 - 0,0
29.07.2020 23:00:00 16,0 10,5 12,4 3 2 5 3 S 1021,1 12 0,0
29.07.2020 22:00:00 16,3 10,4 12,8 3 1 7 4 ENE 1020,8 - 0,0
29.07.2020 21:00:00 16,9 10,3 16,5 4 2 11 6 NE 1020,7 - 0,0
29.07.2020 20:00:00 17,7 10,3 18,2 5 3 14 8 NNE 1020,8 12 0,0
29.07.2020 19:00:00 18,4 11,0 20,1 8 4 18 10 N 1020,8 - 0,0
29.07.2020 18:00:00 19,8 11,3 20,9 11 6 18 10 N 1021,3 - 0,0

tt = Température de l'air
td = dewpoint
tt 5cm = Température de l'air 5cm
ff = Vitesse du vent
fx = gusts
dd = Direction du vent
ppp = reduced air pressure
vv = visibility
rr = Quantités de précipitations

stations d'obs. à proximité